Location: Cactus School
(34.5700°N, 118.0931°W)
Time: 22:11:41
(UTC-07:00)

Courier 1B - Pass Details

Date: 24 April 2024
Orbit: 962 x 1208 km, 28.3° (Epoch: 25 May)

Event Time Altitude Azimuth Distance (km) Brightness Sun altitude
Exits shadow 03:04:04 36° 125° (SE) 1,671 8.6 -32.7°
Drops below altitude 10° 03:08:16 10° 105° (ESE) 2,898 10.2 -32.2°
Sets 03:10:59 0° 101° (E) 3,816 11.0 -31.8°
